CUBEL (47448 NORAD) Tracking and Keplerian Element Data
This shows tracking and keplerian element data for the satellite.
Feedback or suggestion? Click here.
Element | Value |
Catalog | 47448 |
Name | CUBEL |
Epoch Orbit | 1262 |
Epoch Day | 106.09377664 |
Epoch Year | 2021 |
RAAN | 168.51 |
Inclination | 97.503 |
Eccentricity | 0.0011318 |
Argument of Perigee | 321.773 |
Mean Anonmoly | 38.2697 |
Mean Motion | 15.12772536 |
Decay Rate | 2.49E-06 |
L1 | 1 47448U 21006AM 21106.09377664 .00000249 00000-0 17903-4 0 9997 |
L2 | 2 47448 97.5030 168.5100 0011318 321.7730 38.2697 15.12772536 12626 |
Live tracking and technical data element details for CUBEL (NORAD 47448). CUBEL can be tracked NOW for your location showing map with azimuth and elevation plus other details from your city location.
Track the satellite on the map from your city or location and see movement details for azimuth, elevation, latitude, longitude, range, height, and movement on the map or in text.
IsCatalogInMostPopularTable: catalog: 47448, numindb: 16
Update: records affected: 1
GetName: 47448 CUBEL
Hit Count: updated at: Fri, 16 Apr 2021 11:23:03 GMT